Погода в Сапожковском

Россия / Новосибирская область     54°31′37″N   80°25′42″E
темп.,
°C
ветер,
м/с
пор.,
м/с
влажн.,
%
обл.,
%
осадки,
мм/ч
давл.,
гПа
погр.,
м
27 февраля, сб
сб2701:00−26юз51096100 0.1 1036364
04:00−27юз4996100 0.0 1036277
07:00−28юз4897100 0.1 1037239
10:00−27юз4896100 0.1 1037270
13:00−26юз4795100 0.1 1038328
16:00−24юз369396 0.0 1038331
19:00−27ююз349658 0.0 103839
22:00−29ююз34960 0.0 103837
28 февраля, вс
вс2801:00−30ююз34970 0.0 103843
04:00−29ю349819 0.0 103732
07:00−29ююв449419 0.0 103661
10:00−27юв599457 0.0 1034171
13:00−21юв599078 0.0 1031265
16:00−17ююв61089100 0.0 1027412
19:00−12юв51194100 0.3 1024601
22:00−10юв61394100 0.6 1019569
1 марта, пн
пн101:00−8ююв71394100 1.5 1015567
04:00−6ююв71295100 1.5 1011478
07:00−3ююв61296100 3.9 1007654
10:00+1юз81498100 2.0 1006738
13:000юз71399100 2.6 1006740
16:000юз81399100 0.6 1006778
19:000юз71297100 1.4 1007615
22:00−2зсз4697100 1.0 1009324
2 марта, вт
вт201:00−9зсз129796 1.2 101252
04:00−10з369699 0.3 1013164
07:00−13зюз379696 0.4 1015180
10:00−14зюз3696100 0.1 1016240
13:00−13юз4695100 0.1 1017284
16:00−12зюз3593100 0.0 1017319
19:00−16юз229795 0.1 101620
22:00−18ююв019968 0.0 101620
3 марта, ср
ср301:00−16юв119584 0.0 101520
04:00−14всв1197100 0.5 101452
07:00−15в1197100 0.9 101420
10:00−13св0095100 0.4 101465
13:00−12з2290100 0.7 1015336
16:00−11з3492100 0.3 1016452
19:00−12з3396100 0.5 101968
22:00−15з339782 0.1 102135